Weather observations for the past three days for
Flagler County Airport
Imperial (Metric)
Date Time (edt) Wind (mph) Vis. (mi.) Weather Sky Cond. Temperature (ºF) Relative Humidity Wind Chill (°F) Heat Index (°F) Pressure Precipitation (in)
Air Dwpt 6 hour altimeter (in) sea level (mb) 1 hr 3 hr 6 hr
Max. Min.
20 08:50 E 16 G 23 10.00 Mostly Cloudy BKN026 BKN034 82.4 71.6 70% 87 30.16 0.0
20 07:50 E 17 10.00 Mostly Cloudy SCT024 SCT033 BKN050 80.6 71.6 74% 85 30.14 0.0
20 07:35 E 12 G 17 10.00 Overcast SCT024 BKN033 OVC050 79.2 70.9 76% 82 30.13 0.0
20 07:15 E 13 10.00 Overcast BKN022 BKN030 OVC060 78.8 71.2 78% 82 30.13 0.0
20 06:55 E 10 10.00 Overcast BKN022 BKN028 OVC042 78.8 72.5 81% 82 30.12 0.0
20 06:50 E 10 10.00 Mostly Cloudy BKN022 78.8 71.6 79% 82 30.12 0.0
20 06:35 E 14 G 21 10.00 Overcast SCT024 BKN028 OVC042 78.8 71.6 79% 82 30.11 0.0
20 06:15 E 12 G 21 10.00 Overcast BKN022 BKN037 OVC043 78.4 72 81% 81 30.1 0.0
20 05:55 E 8 10.00 Mostly Cloudy SCT022 BKN028 BKN036 77.7 72.5 84% 80 30.1 0.0
20 05:50 E 9 10.00 Mostly Cloudy BKN022 78.8 71.6 79% 82 30.1 0.0
20 05:35 E 12 G 21 10.00 Mostly Cloudy SCT022 SCT028 BKN050 77.9 72 82% 80 30.09 0.0
20 05:15 E 12 10.00 Partly Cloudy SCT022 SCT030 77.4 71.6 83% 79 30.09 0.0
20 04:55 E 10 10.00 Mostly Cloudy SCT022 SCT030 BKN040 77.9 72 82% 80 30.09 0.0
20 04:35 E 10 G 18 10.00 Mostly Cloudy SCT024 BKN035 BKN042 78.3 72.1 82% 81 30.09 0.0
20 04:15 E 14 G 18 10.00 Mostly Cloudy SCT022 BKN030 BKN036 78.1 72.1 82% 81 30.09 0.0
20 03:55 E 10 G 16 10.00 Mostly Cloudy BKN022 BKN032 BKN038 77.9 72.7 84% 80 30.09 0.0
20 03:35 E 15 G 20 10.00 Overcast BKN022 BKN027 OVC039 77.9 72.5 84% 80 30.09 0.0
20 03:15 E 10 G 20 10.00 Mostly Cloudy SCT024 BKN029 77.9 72.5 84% 80 30.1 0.0
20 02:55 E 12 G 21 10.00 Mostly Cloudy SCT022 BKN027 77.4 72.9 86% 79 30.1 0.0
20 02:35 E 12 G 18 10.00 Mostly Cloudy SCT022 BKN060 77.4 72.9 86% 79 30.1 0.0
20 02:15 E 12 G 20 10.00 Overcast BKN022 OVC060 77.2 73.4 88% 79 30.1 0.0
20 01:55 E 8 10.00 Mostly Cloudy SCT020 BKN049 BKN060 76.1 73.8 80.8 73.8 93% 76 30.11 0.0 0.3
20 01:35 E 10 G 16 10.00 Overcast SCT013 SCT029 OVC049 75.6 73.8 94% 75 30.11 0.0
20 01:15 E 8 G 12 10.00 Overcast SCT013 BKN029 OVC040 75.7 74.3 95% 75 30.12 0.0
20 00:55 E 12 G 16 10.00 Overcast SCT015 BKN022 OVC040 75.7 74.3 95% 75 30.12 0.0
20 00:35 E 8 0.00 NULL NULL 75.4 74.3 96% 74 30.13 0.0
20 00:15 E 14 G 18 7.00 Light Rain SCT009 OVC013 75.7 74.5 96% 75 30.13 0.0
19 23:55 NE 8 4.00 Thunderstorm Light Rain SCT006 BKN013 OVC031 75 73.9 96% 73 30.14 0.0 0.12
19 23:35 E 10 G 16 3.00 Thunderstorm Light Rain SCT006 BKN015 OVC035 75 73.8 96% 73 30.14 0.0 0.11
19 23:15 NE 5 5.00 Thunderstorm Fog/Mist SCT014 BKN019 OVC035 75.7 74.3 95% 75 30.13 0.0
19 22:55 NE 6 10.00 Thunderstorm in Vicinity SCT015 BKN037 OVC080 75.2 73.9 96% 73 30.12 0.0 0.01 0.18
19 22:35 NE 6 10.00 Thunderstorm in Vicinity SCT013 BKN018 OVC090 74.5 73.4 96% 30.12 0.0 0.01
19 22:15 E 8 7.00 Overcast SCT008 BKN034 OVC095 74.3 73 96% 30.12 0.0 0.01
19 21:55 E 10 G 20 2.50 Light Rain BKN008 BKN027 OVC050 73.9 72.7 96% 30.13 0.0 0.11
19 18:50 E 17 G 25 10.00 Mostly Cloudy BKN031 BKN038 BKN048 82.4 68 62% 85 30.1 0.0
19 17:50 E 18 G 25 10.00 Partly Cloudy SCT065 84.2 66.2 55% 87 30.1 0.0
19 16:50 E 15 G 26 10.00 Partly Cloudy SCT031 86 68 55% 89 30.12 0.0
19 15:50 E 18 G 25 10.00 Partly Cloudy SCT029 SCT046 87.8 68 52% 91 30.12 0.0
19 14:50 E 21 G 28 10.00 Mostly Cloudy and Breezy SCT029 SCT036 BKN045 86 68 55% 89 30.12 0.0
19 13:50 E 20 G 25 10.00 Mostly Cloudy SCT031 BKN038 86 69.8 59% 91 30.13 0.0
19 12:50 E 18 G 25 10.00 Overcast SCT037 OVC065 86 66.2 52% 88 30.14 0.0
19 11:50 E 20 G 28 10.00 Overcast SCT029 OVC065 84.2 68 58% 87 30.14 0.0
19 10:50 E 16 G 24 10.00 Overcast SCT029 BKN038 OVC065 84.2 69.8 62% 88 30.13 0.0
19 09:50 E 17 G 23 10.00 Overcast BKN029 BKN038 OVC065 82.4 69.8 66% 86 30.11 0.0
19 08:50 E 14 G 21 10.00 Overcast SCT029 OVC065 82.4 69.8 66% 86 30.1 0.0
19 07:50 E 15 G 23 10.00 Overcast SCT027 OVC050 80.6 68 66% 83 30.08 0.0
19 07:35 E 14 G 20 10.00 Overcast SCT027 BKN037 OVC044 79.3 69.3 71% 82 30.07 0.0
19 07:15 E 13 G 24 10.00 Overcast BKN029 BKN035 OVC044 79.2 68.9 71% 82 30.07 0.0
19 06:55 E 13 G 20 10.00 Overcast SCT029 SCT034 OVC048 78.8 68.2 70% 81 30.06 0.0
19 06:50 E 14 G 21 10.00 Overcast SCT040 OVC048 78.8 68 70% 81 30.06 0.0
19 06:35 E 15 G 23 10.00 Overcast SCT028 BKN038 OVC055 79 68 69% 81 30.06 0.0
19 06:15 E 15 G 18 10.00 Overcast SCT028 OVC038 78.8 68.5 71% 81 30.06 0.0
19 05:55 E 14 G 21 10.00 Overcast OVC038 78.8 67.8 69% 81 30.06 0.0
19 05:50 E 12 G 23 10.00 Overcast OVC038 78.8 68 70% 81 30.05 0.0
19 05:35 E 12 G 20 10.00 Overcast SCT027 OVC038 78.3 68.7 73% 80 30.05 0.0
19 05:15 E 12 G 23 10.00 Overcast SCT027 BKN040 OVC055 77.9 68.9 74% 80 30.05 0.0
19 04:55 E 15 G 21 10.00 Overcast SCT025 BKN030 OVC055 77.5 70 78% 79 30.04 0.0
19 04:35 E 16 7.00 Light Rain SCT025 BKN030 OVC036 77 71.1 82% 79 30.05 0.0
19 04:15 E 17 G 24 10.00 Overcast SCT027 OVC036 79.3 68.9 71% 82 30.05 0.0
19 03:55 E 13 G 24 10.00 Overcast BKN028 OVC034 79.3 68.9 71% 82 30.05 0.0
19 03:35 E 12 G 20 10.00 Overcast BKN026 OVC034 79.3 70 73% 82 30.04 0.0
19 03:15 E 10 G 24 10.00 Overcast BKN026 BKN037 OVC050 79.7 69.4 71% 83 30.04 0.0
19 02:55 E 18 G 23 10.00 Overcast SCT028 BKN049 OVC060 79.7 69.3 71% 83 30.04 0.0
19 02:35 E 17 G 23 10.00 Overcast SCT026 SCT030 OVC049 79.3 69.8 73% 82 30.05 0.0
19 02:15 E 17 G 23 10.00 Overcast BKN026 BKN048 OVC070 79.7 69.8 72% 83 30.05 0.0
19 01:55 E 16 G 24 10.00 Overcast SCT026 BKN050 OVC055 79.7 69.1 80.8 79.3 70% 82 30.05 0.0
19 01:35 E 15 G 26 10.00 Overcast SCT023 SCT029 OVC050 79.5 70 73% 82 30.06 0.0
19 00:55 E 15 G 28 10.00 Overcast SCT025 BKN032 OVC046 80.1 70.2 72% 83 30.07 0.0
19 00:35 E 17 G 24 10.00 Overcast SCT029 BKN037 OVC060 80.2 69.8 71% 83 30.07 0.0
19 00:15 E 12 G 24 10.00 Overcast SCT029 SCT033 OVC060 80.6 68.9 68% 84 30.08 0.0
18 23:55 E 18 G 25 10.00 Overcast OVC060 80.4 68.7 68% 83 30.08 0.0
18 23:35 E 16 G 25 10.00 Overcast SCT026 SCT037 OVC060 80.6 68.4 66% 83 30.08 0.0
18 23:15 SE 14 G 21 10.00 Overcast SCT026 BKN031 OVC060 80.6 69.8 70% 84 30.07 0.0
18 22:55 E 15 G 25 10.00 Overcast SCT027 OVC050 80.6 69.1 68% 84 30.07 0.0
18 22:35 E 14 G 22 10.00 Overcast BKN027 BKN036 OVC055 80.6 70.2 71% 84 30.06 0.0
18 22:15 E 17 10.00 Overcast BKN027 BKN041 OVC055 80.6 70.5 71% 84 30.06 0.0
18 21:55 E 20 G 25 10.00 Overcast BKN027 BKN032 OVC060 80.8 70.3 71% 84 30.06 0.0
18 18:50 E 14 G 23 10.00 Overcast SCT028 BKN034 OVC048 80.6 71.6 74% 85 30.04 0.0
18 17:50 E 23 10.00 Mostly Cloudy and Breezy SCT026 SCT032 BKN040 80.6 69.8 70% 84 30.04 0.0
18 16:50 E 17 G 25 5.00 Rain SCT028 BKN038 OVC060 84.2 71.6 66% 90 30.04 0.0
18 15:50 E 18 10.00 Overcast SCT028 BKN034 OVC070 86 69.8 59% 91 30.05 0.0
18 14:50 E 17 G 24 10.00 Overcast BKN028 BKN035 OVC070 84.2 69.8 62% 88 30.05 0.0
18 13:50 E 16 G 26 10.00 Mostly Cloudy BKN029 BKN036 BKN047 87.8 71.6 59% 94 30.05 0.0
18 12:50 E 18 G 30 10.00 Overcast SCT029 BKN034 OVC075 86 69.8 59% 91 30.06 0.0
18 11:50 E 17 G 29 10.00 Mostly Cloudy SCT029 BKN036 84.2 69.8 62% 88 30.06 0.0
18 10:50 E 15 G 23 10.00 Mostly Cloudy BKN029 BKN037 BKN045 84.2 69.8 62% 88 30.07 0.0
18 09:50 E 17 G 23 10.00 Mostly Cloudy SCT029 BKN034 BKN043 84.2 69.8 62% 88 30.07 0.0
18 08:50 E 17 10.00 Partly Cloudy SCT029 SCT034 82.4 68 62% 85 30.06 0.0
18 07:50 SE 9 G 20 10.00 Partly Cloudy SCT030 SCT041 SCT047 80.6 68 66% 83 30.05 0.0
18 07:35 E 8 10.00 Mostly Cloudy BKN032 BKN039 BKN047 79.7 68.2 68% 82 30.05 0.0
18 07:15 E 7 10.00 Mostly Cloudy BKN032 BKN037 BKN046 77.5 67.8 72% 79 30.05 0.0
18 06:55 E 6 10.00 Partly Cloudy SCT032 SCT046 75.9 67.1 74% 77 30.05 0.0
18 06:50 E 6 10.00 Partly Cloudy SCT032 75.2 66.2 74% 77 30.04 0.0
18 06:35 E 6 10.00 Partly Cloudy SCT032 75.6 66 72% 77 30.04 0.0
18 06:15 SE 6 10.00 Fair CLR 76.3 65.7 70% 78 30.04 0.0
18 05:55 E 8 10.00 Partly Cloudy SCT031 77 66.6 70% 79 30.03 0.0
18 05:50 SE 8 10.00 Partly Cloudy SCT031 77 66.2 69% 79 30.03 0.0
18 05:35 E 13 G 16 10.00 Mostly Cloudy BKN029 BKN038 77.4 67.6 72% 79 30.03 0.0
18 05:15 E 9 10.00 Mostly Cloudy BKN029 BKN038 BKN055 77.9 68.9 74% 80 30.02 0.0
18 04:55 E 9 10.00 Mostly Cloudy SCT029 SCT039 BKN049 77.9 68 72% 80 30.02 0.0
18 04:35 E 12 10.00 Partly Cloudy SCT035 SCT043 SCT050 77 67.3 72% 79 30.02 0.0
18 04:15 E 10 10.00 Partly Cloudy SCT035 SCT043 SCT050 77 67.1 72% 79 30.02 0.0
18 03:55 E 8 10.00 Partly Cloudy SCT035 SCT043 77 67.1 72% 79 30.02 0.0
18 03:35 E 8 10.00 Partly Cloudy SCT035 77.2 66.9 71% 79 30.02 0.0
18 03:15 E 12 10.00 Partly Cloudy SCT031 SCT040 77.4 66 68% 79 30.02 0.0
18 02:55 SE 8 10.00 Partly Cloudy SCT031 SCT040 77 68 74% 79 30.03 0.0
18 02:35 E 6 10.00 Partly Cloudy SCT031 SCT044 77 68.2 74% 79 30.04 0.0
18 02:15 SE 9 10.00 Partly Cloudy SCT031 SCT050 77.2 69.1 76% 79 30.05 0.0
18 01:55 SE 7 10.00 Partly Cloudy SCT029 SCT035 SCT050 77 69.1 80.4 75.4 77% 79 30.05 0.0 0.01
18 01:35 SE 7 10.00 Fair CLR 77 69.1 77% 79 30.06 0.0
18 01:15 SE 8 10.00 Partly Cloudy SCT032 SCT050 SCT070 76.8 69.3 78% 78 30.06 0.0
18 00:55 SE 7 10.00 Mostly Cloudy SCT027 SCT036 BKN049 77 70.2 80% 79 30.06 0.0
18 00:35 SE 6 10.00 Mostly Cloudy SCT027 SCT032 BKN055 76.8 70.9 82% 78 30.07 0.0
18 00:15 SE 6 10.00 Partly Cloudy SCT030 SCT045 75.7 71.1 85% 76 30.07 0.0
17 23:55 SE 6 10.00 Partly Cloudy SCT027 SCT035 SCT042 75.7 72 88% 76 30.07 0.0 0.01
17 23:35 SE 7 10.00 Mostly Cloudy SCT029 SCT038 BKN060 75.7 72 88% 76 30.06 0.0 0.01
17 23:15 E 5 7.00 Light Rain SCT029 BKN060 OVC080 76.5 72.5 88% 77 30.06 0.0 0.01
17 22:55 SE 5 10.00 Overcast SCT029 BKN060 OVC080 78.1 71.2 80% 80 30.06 0.0
17 22:35 E 8 10.00 Mostly Cloudy BKN027 BKN035 BKN047 78.8 70.3 75% 81 30.06 0.0
17 22:15 E 6 10.00 Overcast SCT027 BKN041 OVC070 78.8 71.2 78% 82 30.06 0.0
17 21:55 E 9 10.00 Mostly Cloudy SCT030 SCT041 BKN048 78.8 69.6 74% 81 30.05 0.0
17 18:50 E 16 10.00 Partly Cloudy SCT031 SCT038 82.4 69.8 66% 86 30.03 0.0
17 17:50 E 12 10.00 Partly Cloudy SCT043 SCT060 SCT070 78.8 71.6 79% 82 30.04 0.0
17 16:50 SE 14 G 23 10.00 Overcast BKN028 BKN041 OVC065 84.2 69.8 62% 88 30.05 0.0
17 15:50 E 15 G 23 10.00 Partly Cloudy SCT025 SCT031 SCT038 86 69.8 59% 91 30.06 0.0
17 14:50 E 17 G 24 10.00 Mostly Cloudy BKN027 BKN033 BKN044 86 71.6 62% 92 30.08 0.0
17 13:50 E 16 G 24 10.00 Mostly Cloudy BKN025 BKN029 BKN048 86 73.4 66% 93 30.1 0.0
17 12:50 E 13 10.00 Overcast SCT025 BKN030 OVC080 84.2 73.4 70% 91 30.11 0.0
17 11:50 E 17 G 21 10.00 Overcast BKN027 OVC034 87.8 71.6 59% 94 30.11 0.0
17 10:50 E 16 G 24 10.00 Mostly Cloudy BKN024 BKN029 86 71.6 62% 92 30.11 0.0
17 09:50 SE 14 10.00 Mostly Cloudy BKN023 BKN029 84.2 71.6 66% 90 30.1 0.0
Date Time (edt) Wind (mph) Vis. (mi.) Weather Sky Cond. Air Dwpt Max. Min. Relative Humidity Wind Chill (°F) Heat Index (°F) altimeter (in) sea level (mb) 1 hr 3 hr 6 hr
6 hour
Temperature (ºF) Pressure Precipitation (in)